FW5763 Weather Reports


Display with metric or nautical units.
time (UTC)temp
F
wind
direction
speed
MPH
gust
MPH
rain 1hr
in
rain 24hr
in
rain mn
in
humidity
%
barometer
mb
20260902194537 69 224 6.0 7.0 0.00 0.00 0.00 71 1018.6
20260902193517 69 239 5.0 8.0 0.00 0.00 0.00 71 1018.7
20260902192517 67 198 5.0 7.0 0.00 0.00 0.00 74 1018.9
20260902191517 68 215 4.0 7.0 0.00 0.00 0.00 73 1019.0
20260902190516 67 213 2.0 5.0 0.00 0.00 0.00 75 1019.1
20260902185537 67 212 1.0 6.0 0.00 0.00 0.00 74 1019.1
20260902184517 67 208 2.0 7.0 0.00 0.00 0.00 74 1019.0
20260902183637 67 216 4.0 5.0 0.00 0.00 0.00 74 1019.1
20260902182517 67 241 5.0 9.0 0.00 0.00 0.00 73 1019.2
20260902181517 67 118 3.0 6.0 0.00 0.00 0.00 73 1019.1
20260902180537 66 148 3.0 5.0 0.00 0.00 0.00 74 1019.1
20260902175516 66 248 3.0 4.0 0.00 0.00 0.00 76 1019.1
20260902174517 65 103 3.0 4.0 0.00 0.00 0.00 76 1019.1
20260902173516 65 196 1.0 4.0 0.00 0.00 0.00 75 1019.1
20260902172536 65 112 2.0 6.0 0.00 0.00 0.00 75 1019.0
20260902171516 65 209 2.0 5.0 0.00 0.00 0.00 74 1019.0
20260902170517 64 226 0.0 1.0 0.00 0.00 0.00 74 1019.0
20260902165516 64 247 0.0 1.0 0.00 0.00 0.00 74 1018.9
20260902164517 64 191 1.0 1.0 0.00 0.00 0.00 76 1018.9
20260902163516 63 104 0.0 2.0 0.00 0.00 0.00 76 1019.0
20260902162517 63 96 2.0 3.0 0.00 0.00 0.00 76 1019.1
20260902161516 63 129 2.0 4.0 0.00 0.00 0.00 76 1018.9
20260902160517 62 172 0.0 2.0 0.00 0.00 0.00 76 1018.9
20260902155517 63 91 1.0 2.0 0.00 0.00 0.00 75 1019.0
20260902154516 63 0.0 0.0 0.00 0.00 0.00 76 1018.8
20260902153516 62 0.0 0.0 0.00 0.00 0.00 78 1018.7
20260902152537 60 92 0.0 3.0 0.00 0.00 0.00 81 1018.5
20260902151516 59 77 1.0 2.0 0.00 0.00 0.00 86 1018.4
20260902150517 57 44 1.0 1.0 0.00 0.00 0.00 89 1018.3
20260902145516 56 314 0.0 1.0 0.00 0.00 0.00 91 1018.4
20260902144536 55 0.0 0.0 0.00 0.00 0.00 91 1018.4
20260902143516 54 325 0.0 2.0 0.00 0.00 0.00 91 1018.4
20260902142516 54 0.0 0.0 0.00 0.00 0.00 90 1018.3
20260902141516 54 0.0 0.0 0.00 0.00 0.00 90 1018.2
20260902140516 53 0.0 0.0 0.00 0.00 0.00 90 1018.1
20260902135517 53 0.0 0.0 0.00 0.00 0.00 90 1018.0
20260902134557 53 0.0 0.0 0.00 0.00 0.00 89 1018.0
20260902133816 53 0.0 0.0 0.00 0.00 0.00 89 1017.9
20260902132816 53 0.0 0.0 0.00 0.00 0.00 89 1017.8
20260902131817 53 0.0 0.0 0.00 0.00 0.00 89 1017.9
20260902130836 53 0.0 0.0 0.00 0.00 0.00 89 1017.9
20260902125817 53 0.0 0.0 0.00 0.00 0.00 89 1017.8
20260902124816 53 0.0 0.0 0.00 0.00 0.00 89 1017.8
20260902123816 53 0.0 0.0 0.00 0.00 0.00 88 1017.8
20260902122837 53 0.0 0.0 0.00 0.00 0.00 88 1017.8
20260902121816 53 0.0 0.0 0.00 0.00 0.00 88 1017.8
20260902120816 53 0.0 0.0 0.00 0.00 0.00 88 1017.7
20260902115816 53 0.0 0.0 0.00 0.00 0.00 88 1017.6
20260902114836 53 0.0 0.0 0.00 0.00 0.00 88 1017.6
20260902113836 53 0.0 0.0 0.00 0.00 0.00 88 1017.8
20260902112836 52 0.0 0.0 0.00 0.00 0.00 88 1017.9
20260902111816 52 0.0 0.0 0.00 0.00 0.00 88 1017.9
20260902110816 52 0.0 0.0 0.00 0.00 0.00 88 1017.9
20260902105816 52 0.0 0.0 0.00 0.00 0.00 88 1017.7
20260902104816 52 0.0 0.0 0.00 0.00 0.00 88 1017.7
20260902103816 52 0.0 0.0 0.00 0.00 0.00 88 1017.6
20260902102816 52 0.0 0.0 0.00 0.00 0.00 87 1017.6
20260902101816 53 0.0 0.0 0.00 0.00 0.00 87 1017.5
20260902100816 53 0.0 0.0 0.00 0.00 0.00 88 1017.6
20260902095816 53 0.0 0.0 0.00 0.00 0.00 88 1017.6
20260902094836 53 0.0 0.0 0.00 0.00 0.00 88 1017.7
20260902093816 53 0.0 0.0 0.00 0.00 0.00 87 1017.7
20260902092816 54 0.0 0.0 0.00 0.00 0.00 87 1017.7
20260902091816 54 0.0 0.0 0.00 0.00 0.00 87 1017.5
20260902090816 54 0.0 0.0 0.00 0.00 0.00 86 1017.5
20260902085816 54 0.0 0.0 0.00 0.00 0.00 86 1017.7
20260902084816 55 0.0 0.0 0.00 0.00 0.00 86 1017.9
20260902083816 55 0.0 0.0 0.00 0.00 0.00 87 1017.9
20260902082816 55 0.0 0.0 0.00 0.00 0.00 87 1018.0
20260902081816 54 0.0 0.0 0.00 0.00 0.00 87 1017.9
20260902080816 54 0.0 0.0 0.00 0.00 0.00 85 1017.8
20260902075816 54 0.0 0.0 0.00 0.00 0.00 85 1017.8
20260902074937 54 0.0 0.0 0.00 0.00 0.00 84 1017.8
20260902073816 54 0.0 0.0 0.00 0.00 0.00 84 1017.9
20260902072816 54 0.0 0.0 0.00 0.00 0.00 83 1017.9
20260902071816 55 0.0 0.0 0.00 0.00 0.00 83 1017.8
20260902070816 55 0.0 0.0 0.00 0.00 0.00 83 1017.8
20260902065816 55 0.0 0.0 0.00 0.00 0.00 83 1017.8
20260902064836 55 0.0 0.0 0.00 0.00 0.00 82 1017.8
20260902063816 55 0.0 0.0 0.00 0.00 0.00 82 1017.7
20260902062816 56 0.0 0.0 0.00 0.00 0.00 82 1017.8
20260902061816 56 0.0 0.0 0.00 0.00 0.00 80 1017.8
20260902060816 56 0.0 0.0 0.00 0.00 0.00 80 1017.7
20260902055816 56 0.0 0.0 0.00 0.00 0.00 79 1017.9
20260902054816 57 0.0 0.0 0.00 0.00 0.00 78 1018.0
20260902053816 57 0.0 0.0 0.00 0.00 0.00 78 1018.0
20260902052816 57 0.0 0.0 0.00 0.00 0.00 78 1018.1
20260902051816 57 0.0 0.0 0.00 0.00 0.00 77 1018.2
20260902050816 58 0.0 0.0 0.00 0.00 0.00 76 1018.1
20260902045816 58 0.0 0.0 0.00 0.00 0.00 75 1018.1
20260902044816 58 0.0 0.0 0.00 0.00 0.00 75 1018.1
20260902043816 59 0.0 0.0 0.00 0.00 0.00 74 1018.0
20260902042816 59 0.0 0.0 0.00 0.00 0.00 74 1018.0
20260902041836 59 0.0 0.0 0.00 0.00 0.00 73 1018.0
20260902040816 60 0.0 0.0 0.00 0.00 0.00 72 1017.9
20260902035816 60 0.0 0.0 0.00 0.00 0.00 71 1017.7
20260902034836 61 0.0 0.0 0.00 0.00 0.00 70 1017.5
20260902033816 62 253 0.0 1.0 0.00 0.00 0.00 70 1017.5
20260902032816 62 253 1.0 2.0 0.00 0.00 0.00 68 1017.3
20260902031814 62 250 1.0 2.0 0.00 0.00 0.00 68 1017.2
20260902030836 62 244 2.0 3.0 0.00 0.00 0.00 67 1017.2
20260902025816 63 255 3.0 4.0 0.00 0.00 0.00 67 1017.0
20260902024816 63 267 3.0 4.0 0.00 0.00 0.00 67 1017.0
20260902023816 64 256 4.0 7.0 0.00 0.00 0.00 66 1016.9
20260902022816 64 253 3.0 6.0 0.00 0.00 0.00 66 1016.9
20260902021816 65 247 3.0 5.0 0.00 0.00 0.00 65 1016.8
20260902020816 65 226 3.0 8.0 0.00 0.00 0.00 65 1016.7
20260902015816 66 259 4.0 8.0 0.00 0.00 0.00 65 1016.8
20260902014816 66 240 4.0 9.0 0.00 0.00 0.00 65 1016.7
20260902013815 67 235 7.0 12.0 0.00 0.00 0.00 65 1016.6
20260902012816 67 203 4.0 8.0 0.00 0.00 0.00 64 1016.6
20260902011816 68 211 2.0 5.0 0.00 0.00 0.00 64 1016.6
20260902010816 67 231 6.0 10.0 0.00 0.00 0.00 65 1016.4
20260902005816 67 234 7.0 9.0 0.00 0.00 0.00 66 1016.4
20260902004815 68 223 8.0 13.0 0.00 0.00 0.00 65 1016.4
20260902003816 68 219 3.0 7.0 0.00 0.00 0.00 66 1016.4
20260902002816 67 220 5.0 8.0 0.00 0.00 0.00 67 1016.4
20260902001815 68 208 6.0 11.0 0.00 0.00 0.00 67 1016.3
20260902000836 68 206 5.0 9.0 0.00 0.00 0.00 67 1016.4
20260901235816 67 196 6.0 13.0 0.00 0.00 0.00 67 1016.4
20260901234815 68 243 4.0 7.0 0.00 0.00 0.00 67 1016.5
20260901233816 67 231 7.0 10.0 0.00 0.00 0.00 67 1016.5
20260901232835 67 218 8.0 10.0 0.00 0.00 0.00 67 1016.6
20260901231816 67 262 9.0 13.0 0.00 0.00 0.00 66 1016.7
20260901230815 67 239 8.0 11.0 0.00 0.00 0.00 64 1016.8
20260901225816 68 241 8.0 12.0 0.00 0.00 0.00 63 1016.8
20260901224815 67 212 7.0 14.0 0.00 0.00 0.00 63 1016.8
20260901223836 68 200 5.0 12.0 0.00 0.00 0.00 63 1016.7
20260901222815 67 221 7.0 14.0 0.00 0.00 0.00 64 1016.9
20260901221815 67 216 7.0 12.0 0.00 0.00 0.00 64 1017.0
20260901220835 67 226 9.0 15.0 0.00 0.00 0.00 63 1017.0
20260901215816 67 209 5.0 10.0 0.00 0.00 0.00 67 1017.0
20260901214816 67 233 6.0 9.0 0.00 0.00 0.00 65 1017.1
20260901213815 67 218 8.0 12.0 0.00 0.00 0.00 64 1017.1
20260901212815 67 195 9.0 15.0 0.00 0.00 0.00 64 1017.2
20260901211855 67 222 7.0 11.0 0.00 0.00 0.00 63 1017.1
20260901210835 67 165 4.0 8.0 0.00 0.00 0.00 67 1017.1
20260901205816 66 214 7.0 10.0 0.00 0.00 0.00 65 1017.2
20260901204815 66 190 6.0 10.0 0.00 0.00 0.00 66 1017.3
20260901203815 66 188 8.0 14.0 0.00 0.00 0.00 68 1017.4
20260901202815 66 214 8.0 14.0 0.00 0.00 0.00 69 1017.6
20260901201815 66 190 8.0 14.0 0.00 0.00 0.00 73 1017.6
20260901200815 65 189 4.0 14.0 0.00 0.00 0.00 74 1017.9
20260901195835 64 214 7.0 11.0 0.00 0.00 0.00 72 1017.8
20260901194815 64 231 6.0 16.0 0.00 0.00 0.00 72 1017.8